Year,Month,Day,Hour,Minute,Value (Times are PST for temperature in C)
2009,03,24,00,00,3.90
2009,03,24,00,01,3.90
2009,03,24,00,02,3.90
2009,03,24,00,03,3.90
2009,03,24,00,04,3.90
2009,03,24,00,05,3.90
2009,03,24,00,06,3.90
2009,03,24,00,07,3.90
2009,03,24,00,08,3.90
2009,03,24,00,09,3.90
2009,03,24,00,10,3.90
2009,03,24,00,11,3.90
2009,03,24,00,12,3.90
2009,03,24,00,13,3.90
2009,03,24,01,02,3.80
2009,03,24,01,03,3.80
2009,03,24,01,04,3.80
2009,03,24,01,05,3.80
2009,03,24,01,06,3.80
2009,03,24,01,07,3.80
2009,03,24,01,08,3.80
2009,03,24,01,09,3.80
2009,03,24,01,10,3.80
2009,03,24,01,11,3.80
2009,03,24,01,12,3.80
2009,03,24,01,13,3.80
2009,03,24,01,14,3.80
2009,03,24,01,15,3.80
2009,03,24,01,16,3.80
2009,03,24,01,17,3.80
2009,03,24,01,18,3.80
2009,03,24,01,19,3.80
2009,03,24,01,20,3.80
2009,03,24,01,21,3.80
2009,03,24,01,22,3.80
2009,03,24,01,23,3.80
2009,03,24,01,24,3.80
2009,03,24,01,25,3.80
2009,03,24,01,26,3.80
2009,03,24,01,27,3.70
2009,03,24,01,28,3.80
2009,03,24,01,29,3.80
2009,03,24,01,30,3.80
2009,03,24,01,31,3.80
2009,03,24,01,32,3.80
2009,03,24,01,33,3.80
2009,03,24,01,34,3.70
2009,03,24,01,35,3.70
2009,03,24,01,36,3.80
2009,03,24,01,37,3.70
2009,03,24,01,38,3.70
2009,03,24,01,39,3.80
2009,03,24,01,40,3.70
2009,03,24,01,41,3.70
2009,03,24,01,42,3.70
2009,03,24,01,43,3.70
2009,03,24,01,44,3.70
2009,03,24,01,45,3.70
2009,03,24,01,46,3.70
2009,03,24,01,47,3.70
2009,03,24,01,48,3.70
2009,03,24,01,49,3.70
2009,03,24,01,50,3.70
2009,03,24,01,51,3.70
2009,03,24,01,52,3.70
2009,03,24,01,53,3.70
2009,03,24,01,54,3.70
2009,03,24,01,55,3.70
2009,03,24,01,56,3.70
2009,03,24,01,57,3.70
2009,03,24,01,58,3.70
2009,03,24,01,59,3.70
2009,03,24,02,00,3.70
2009,03,24,02,01,3.70
2009,03,24,02,02,3.70
2009,03,24,02,03,3.70
2009,03,24,02,04,3.70
2009,03,24,02,05,3.70
2009,03,24,02,06,3.70
2009,03,24,02,07,3.70
2009,03,24,02,08,3.70
2009,03,24,02,09,3.70
2009,03,24,02,10,3.70
2009,03,24,02,11,3.70
2009,03,24,02,12,3.70
2009,03,24,02,13,3.70
2009,03,24,02,14,3.60
2009,03,24,02,15,3.70
2009,03,24,02,16,3.60
2009,03,24,02,17,3.60
2009,03,24,02,18,3.60
2009,03,24,02,19,3.60
2009,03,24,02,20,3.70
2009,03,24,02,21,3.70
2009,03,24,02,22,3.60
2009,03,24,02,23,3.60
2009,03,24,02,24,3.70
2009,03,24,02,25,3.70
2009,03,24,02,26,3.60
2009,03,24,02,27,3.60
2009,03,24,02,28,3.60
2009,03,24,02,29,3.60
2009,03,24,02,30,3.60
2009,03,24,02,31,3.60
2009,03,24,02,32,3.60
2009,03,24,02,33,3.60
2009,03,24,02,34,3.60
2009,03,24,02,35,3.60
2009,03,24,02,36,3.60
2009,03,24,02,37,3.60
2009,03,24,02,38,3.60
2009,03,24,02,39,3.60
2009,03,24,02,40,3.60
2009,03,24,02,41,3.60
2009,03,24,02,42,3.60
2009,03,24,02,43,3.60
2009,03,24,02,44,3.60
2009,03,24,02,45,3.60
2009,03,24,02,46,3.60
2009,03,24,02,47,3.60
2009,03,24,02,48,3.60
2009,03,24,02,49,3.60
2009,03,24,02,50,3.60
2009,03,24,02,51,3.60
2009,03,24,02,52,3.60
2009,03,24,02,53,3.50
2009,03,24,02,54,3.50
2009,03,24,02,55,3.50
2009,03,24,02,56,3.50
2009,03,24,02,57,3.50
2009,03,24,02,58,3.50
2009,03,24,02,59,3.50
2009,03,24,03,00,3.50
2009,03,24,03,01,3.50
2009,03,24,03,02,3.50
2009,03,24,03,03,3.50
2009,03,24,03,04,3.50
2009,03,24,03,05,3.50
2009,03,24,03,06,3.50
2009,03,24,03,07,3.50
2009,03,24,03,08,3.50
2009,03,24,03,09,3.50
2009,03,24,03,10,3.50
2009,03,24,03,11,3.50
2009,03,24,03,12,3.50
2009,03,24,03,13,3.50
2009,03,24,03,14,3.50
2009,03,24,03,15,3.50
2009,03,24,03,16,3.50
2009,03,24,03,17,3.50
2009,03,24,03,18,3.50
2009,03,24,03,19,3.50
2009,03,24,03,20,3.50
2009,03,24,03,21,3.50
2009,03,24,03,22,3.50
2009,03,24,03,23,3.50
2009,03,24,03,24,3.50
2009,03,24,03,25,3.50
2009,03,24,03,26,3.50
2009,03,24,03,27,3.50
2009,03,24,03,28,3.50
2009,03,24,03,29,3.50
2009,03,24,03,30,3.50
2009,03,24,03,31,3.50
2009,03,24,03,32,3.50
2009,03,24,03,33,3.50
2009,03,24,03,34,3.60
2009,03,24,03,35,3.50
2009,03,24,03,36,3.50
2009,03,24,03,37,3.50
2009,03,24,03,38,3.60
2009,03,24,03,39,3.60
2009,03,24,03,40,3.60
2009,03,24,03,41,3.60
2009,03,24,03,42,3.60
2009,03,24,03,43,3.60
2009,03,24,03,44,3.60
2009,03,24,03,45,3.60
2009,03,24,03,46,3.60
2009,03,24,03,47,3.60
2009,03,24,03,48,3.60
2009,03,24,03,49,3.70
2009,03,24,03,50,3.60
2009,03,24,03,51,3.70
2009,03,24,03,52,3.70
2009,03,24,03,53,3.70
2009,03,24,03,54,3.70
2009,03,24,03,55,3.70
2009,03,24,03,56,3.70
2009,03,24,03,57,3.70
2009,03,24,03,58,3.70
2009,03,24,03,59,3.70
2009,03,24,04,00,3.70
2009,03,24,04,01,3.70
2009,03,24,04,02,3.70
2009,03,24,04,03,3.70
2009,03,24,04,04,3.70
2009,03,24,04,05,3.70
2009,03,24,04,06,3.70
2009,03,24,04,07,3.70
2009,03,24,04,08,3.70
2009,03,24,04,09,3.70
2009,03,24,04,10,3.70
2009,03,24,04,11,3.80
2009,03,24,04,12,3.80
2009,03,24,04,13,3.80
2009,03,24,04,14,3.80
2009,03,24,04,15,3.80
2009,03,24,04,16,3.80
2009,03,24,04,17,3.80
2009,03,24,04,18,3.80
2009,03,24,04,19,3.80
2009,03,24,04,20,3.80
2009,03,24,04,21,3.90
2009,03,24,04,22,3.90
2009,03,24,04,23,3.90
2009,03,24,04,24,4.00
2009,03,24,04,25,4.00
2009,03,24,04,26,4.10
2009,03,24,04,27,4.10
2009,03,24,04,28,4.10
2009,03,24,04,29,4.10
2009,03,24,04,30,4.10
2009,03,24,04,31,4.10
2009,03,24,04,32,4.10
2009,03,24,04,33,4.10
2009,03,24,04,34,4.10
2009,03,24,04,35,4.10
2009,03,24,04,36,4.10
2009,03,24,04,37,4.20
2009,03,24,04,38,4.30
2009,03,24,04,39,4.40
2009,03,24,04,40,4.50
2009,03,24,04,41,4.70
2009,03,24,04,42,4.70
2009,03,24,04,43,4.80
2009,03,24,04,44,4.80
2009,03,24,04,45,4.80
2009,03,24,04,46,4.80
2009,03,24,04,47,4.90
2009,03,24,04,48,4.90
2009,03,24,04,49,5.00
2009,03,24,04,50,5.00
2009,03,24,04,51,5.00
2009,03,24,04,52,5.00
2009,03,24,04,53,5.10
2009,03,24,04,54,5.10
2009,03,24,04,55,5.10
2009,03,24,04,56,5.10
2009,03,24,04,57,5.10
2009,03,24,04,58,5.10
2009,03,24,04,59,5.10
2009,03,24,05,00,5.10
2009,03,24,05,01,5.10
2009,03,24,05,02,5.10
2009,03,24,05,03,5.10
2009,03,24,05,04,5.10
2009,03,24,05,05,5.10
2009,03,24,05,06,5.10
2009,03,24,05,07,5.00
2009,03,24,05,08,5.00
2009,03,24,05,09,4.90
2009,03,24,05,10,4.90
2009,03,24,05,11,4.90
2009,03,24,05,12,4.90
2009,03,24,05,13,4.90
2009,03,24,05,14,4.90
2009,03,24,05,15,4.90
2009,03,24,05,16,4.90
2009,03,24,05,17,4.90
2009,03,24,05,18,4.90
2009,03,24,05,19,4.90
2009,03,24,05,20,4.90
2009,03,24,05,21,4.90
2009,03,24,05,22,4.90
2009,03,24,05,23,4.90
2009,03,24,05,24,4.90
2009,03,24,05,25,4.90
2009,03,24,05,26,4.80
2009,03,24,05,27,4.80
2009,03,24,05,28,4.80
2009,03,24,05,29,4.90
2009,03,24,05,30,4.90
2009,03,24,05,31,5.00
2009,03,24,05,32,5.10
2009,03,24,05,33,5.10
2009,03,24,05,34,5.10
2009,03,24,05,35,5.20
2009,03,24,05,36,5.30
2009,03,24,05,37,5.40
2009,03,24,05,38,5.40
2009,03,24,05,39,5.50
2009,03,24,05,40,5.50
2009,03,24,05,41,5.50
2009,03,24,05,42,5.50
2009,03,24,05,43,5.60
2009,03,24,05,44,5.60
2009,03,24,05,45,5.60
2009,03,24,05,46,5.60
2009,03,24,05,47,5.60
2009,03,24,05,48,5.60
2009,03,24,05,49,5.60
2009,03,24,05,50,5.60
2009,03,24,05,51,5.60
2009,03,24,05,52,5.70
2009,03,24,05,53,5.70
2009,03,24,05,54,5.70
2009,03,24,05,55,5.70
2009,03,24,05,56,5.70
2009,03,24,05,57,5.70
2009,03,24,05,58,5.80
2009,03,24,05,59,5.80
2009,03,24,06,00,5.80
2009,03,24,06,01,5.80
2009,03,24,06,02,5.80
2009,03,24,06,03,5.80
2009,03,24,06,04,5.80
2009,03,24,06,05,5.80
2009,03,24,06,06,5.80
2009,03,24,06,07,5.80
2009,03,24,06,08,5.70
2009,03,24,06,09,5.70
2009,03,24,06,10,5.70
2009,03,24,06,11,5.70
2009,03,24,06,12,5.70
2009,03,24,06,13,5.70
2009,03,24,06,14,5.70
2009,03,24,06,15,5.60
2009,03,24,06,16,5.60
2009,03,24,06,17,5.60
2009,03,24,06,18,5.60
2009,03,24,06,19,5.60
2009,03,24,06,20,5.60
2009,03,24,06,21,5.60
2009,03,24,06,22,5.60
2009,03,24,06,23,5.60
2009,03,24,06,24,5.60
2009,03,24,06,25,5.60
2009,03,24,06,26,5.60
2009,03,24,06,27,5.60
2009,03,24,06,28,5.60
2009,03,24,06,29,5.60
2009,03,24,06,30,5.60
2009,03,24,06,31,5.50
2009,03,24,06,32,5.50
2009,03,24,06,33,5.50
2009,03,24,06,34,5.50
2009,03,24,06,35,5.50
2009,03,24,06,36,5.50
2009,03,24,06,37,5.50
2009,03,24,06,38,5.50
2009,03,24,06,39,5.50
2009,03,24,06,40,5.50
2009,03,24,06,41,5.50
2009,03,24,06,42,5.50
2009,03,24,06,43,5.50
2009,03,24,06,44,5.60
2009,03,24,06,45,5.60
2009,03,24,06,46,5.60
2009,03,24,06,47,5.60
2009,03,24,06,48,5.60
2009,03,24,06,49,5.60
2009,03,24,06,50,5.60
2009,03,24,06,51,5.60
2009,03,24,06,52,5.60
2009,03,24,06,53,5.60
2009,03,24,06,54,5.60
2009,03,24,06,55,5.60
2009,03,24,06,56,5.70
2009,03,24,06,57,5.70
2009,03,24,06,58,5.70
2009,03,24,06,59,5.60
2009,03,24,07,00,5.60
2009,03,24,07,01,5.60
2009,03,24,07,02,5.70
2009,03,24,07,03,5.70
2009,03,24,07,04,5.70
2009,03,24,07,05,5.70
2009,03,24,07,06,5.70
2009,03,24,07,07,5.70
2009,03,24,07,08,5.70
2009,03,24,07,09,5.70
2009,03,24,07,10,5.70
2009,03,24,07,11,5.70
2009,03,24,07,12,5.70
2009,03,24,07,13,5.70
2009,03,24,07,14,5.70
2009,03,24,07,15,5.70
2009,03,24,07,16,5.70
2009,03,24,07,17,5.70
2009,03,24,07,18,5.70
2009,03,24,07,19,5.70
2009,03,24,07,20,5.70
2009,03,24,07,21,5.70
2009,03,24,07,22,5.70
2009,03,24,07,23,5.70
2009,03,24,07,24,5.70
2009,03,24,07,25,5.70
2009,03,24,07,26,5.70
2009,03,24,07,27,5.70
2009,03,24,07,28,5.60
2009,03,24,07,29,5.60
2009,03,24,07,30,5.60
2009,03,24,07,31,5.60
2009,03,24,07,32,5.60
2009,03,24,07,33,5.60
2009,03,24,07,34,5.60
2009,03,24,07,35,5.70
2009,03,24,07,36,5.60
2009,03,24,07,37,5.70
2009,03,24,07,38,5.70
2009,03,24,07,39,5.70
2009,03,24,07,40,5.70
2009,03,24,07,41,5.70
2009,03,24,07,42,5.70
2009,03,24,07,43,5.70
2009,03,24,07,44,5.70
2009,03,24,07,45,5.70
2009,03,24,07,46,5.70
2009,03,24,07,47,5.70
2009,03,24,07,48,5.80
2009,03,24,07,49,5.80
2009,03,24,07,50,5.80
2009,03,24,07,51,5.80
2009,03,24,07,52,5.80
2009,03,24,07,53,5.80
2009,03,24,07,54,5.80
2009,03,24,07,55,5.80
2009,03,24,07,56,5.80
2009,03,24,07,57,5.80
2009,03,24,07,58,5.80
2009,03,24,07,59,5.80
2009,03,24,08,00,5.80
2009,03,24,08,01,5.80
2009,03,24,08,02,5.80
2009,03,24,08,03,5.80
2009,03,24,08,04,5.80
2009,03,24,08,05,5.80
2009,03,24,08,06,5.80
2009,03,24,08,07,5.80
2009,03,24,08,08,5.80
2009,03,24,08,09,5.80
2009,03,24,08,10,5.90
2009,03,24,08,11,5.90
2009,03,24,08,12,5.90
2009,03,24,08,13,5.90
2009,03,24,08,14,5.90
2009,03,24,08,15,5.90
2009,03,24,08,16,6.00
2009,03,24,08,17,6.00
2009,03,24,08,18,6.00
2009,03,24,08,19,6.00
2009,03,24,08,20,6.00
2009,03,24,08,21,6.00
2009,03,24,08,22,6.00
2009,03,24,08,23,6.00
2009,03,24,08,24,6.10
2009,03,24,08,25,6.10
2009,03,24,08,26,6.10
2009,03,24,08,27,6.10
2009,03,24,08,28,6.10
2009,03,24,08,29,6.10
2009,03,24,08,30,6.10
2009,03,24,08,31,6.10
2009,03,24,08,32,6.10
2009,03,24,08,33,6.10
2009,03,24,08,34,6.10
2009,03,24,08,35,6.10
2009,03,24,08,36,6.10
2009,03,24,08,37,6.10
2009,03,24,08,38,6.10
2009,03,24,08,39,6.10
2009,03,24,08,40,6.10
2009,03,24,08,41,6.10
2009,03,24,08,42,6.10
2009,03,24,08,43,6.10
2009,03,24,08,44,6.20
2009,03,24,08,45,6.10
2009,03,24,08,46,6.20
2009,03,24,08,47,6.20
2009,03,24,08,48,6.20
2009,03,24,08,49,6.20
2009,03,24,08,50,6.20
2009,03,24,08,51,6.20
2009,03,24,08,52,6.20
2009,03,24,08,53,6.20
2009,03,24,08,54,6.20
2009,03,24,08,55,6.20
2009,03,24,08,56,6.20
2009,03,24,08,57,6.30
2009,03,24,08,58,6.30
2009,03,24,08,59,6.30
2009,03,24,09,00,6.30
2009,03,24,09,01,6.30
2009,03,24,09,02,6.30
2009,03,24,09,03,6.30
2009,03,24,09,04,6.30
2009,03,24,09,05,6.30
2009,03,24,09,06,6.30
2009,03,24,09,07,6.30
2009,03,24,09,08,6.30
2009,03,24,09,09,6.30
2009,03,24,09,10,6.30
2009,03,24,09,11,6.30
2009,03,24,09,12,6.30
2009,03,24,09,13,6.30
2009,03,24,09,14,6.30
2009,03,24,09,15,6.30
2009,03,24,09,16,6.30
2009,03,24,09,17,6.30
2009,03,24,09,18,6.30
2009,03,24,09,19,6.30
2009,03,24,09,20,6.40
2009,03,24,09,21,6.40
2009,03,24,09,22,6.40
2009,03,24,09,23,6.40
2009,03,24,09,24,6.40
2009,03,24,09,25,6.40
2009,03,24,09,26,6.40
2009,03,24,09,27,6.40
2009,03,24,09,28,6.40
2009,03,24,09,29,6.50
2009,03,24,09,30,6.50
2009,03,24,09,31,6.50
2009,03,24,09,32,6.50
2009,03,24,09,33,6.50
2009,03,24,09,34,6.60
2009,03,24,09,35,6.60
2009,03,24,09,36,6.60
2009,03,24,09,37,6.60
2009,03,24,09,38,6.60
2009,03,24,09,39,6.60
2009,03,24,09,40,6.60
2009,03,24,09,41,6.60
2009,03,24,09,42,6.60
2009,03,24,09,43,6.60
2009,03,24,09,44,6.60
2009,03,24,09,45,6.60
2009,03,24,09,46,6.70
2009,03,24,09,47,6.70
2009,03,24,09,48,6.70
2009,03,24,09,49,6.70
2009,03,24,09,50,6.70
2009,03,24,09,51,6.70
2009,03,24,09,52,6.70
2009,03,24,09,53,6.70
2009,03,24,09,54,6.70
2009,03,24,09,55,6.70
2009,03,24,09,56,6.70
2009,03,24,09,57,6.70
2009,03,24,09,58,6.70
2009,03,24,09,59,6.70
2009,03,24,10,00,6.70
2009,03,24,10,01,6.80
2009,03,24,10,02,6.80
2009,03,24,10,03,6.80
2009,03,24,10,04,6.80
2009,03,24,10,05,6.80
2009,03,24,10,06,6.80
2009,03,24,10,07,6.80
2009,03,24,10,08,6.80
2009,03,24,10,09,6.80
2009,03,24,10,10,6.80
2009,03,24,10,11,6.80
2009,03,24,10,12,6.80
2009,03,24,10,13,6.80
2009,03,24,10,14,6.80
2009,03,24,10,15,6.80
2009,03,24,10,16,6.80
2009,03,24,10,17,6.80
2009,03,24,10,18,6.80
2009,03,24,10,19,6.80
2009,03,24,10,20,6.80
2009,03,24,10,21,6.90
2009,03,24,10,22,6.90
2009,03,24,10,23,6.90
2009,03,24,10,24,6.90
2009,03,24,10,25,6.90
2009,03,24,10,26,6.90
2009,03,24,10,27,6.90
2009,03,24,10,28,6.90
2009,03,24,10,29,6.90
2009,03,24,10,30,7.00
2009,03,24,10,31,7.00
2009,03,24,10,32,7.00
2009,03,24,10,33,7.00
2009,03,24,10,34,7.00
2009,03,24,10,35,7.00
2009,03,24,10,36,7.00
2009,03,24,10,37,7.00
2009,03,24,10,38,6.90
2009,03,24,10,39,6.90
2009,03,24,10,40,6.90
2009,03,24,10,41,6.90
2009,03,24,10,42,6.90
2009,03,24,10,43,6.90
2009,03,24,10,44,6.90
2009,03,24,10,45,6.90
2009,03,24,10,46,7.00
2009,03,24,10,47,7.00
2009,03,24,10,48,7.00
2009,03,24,10,49,7.00
2009,03,24,10,50,7.10
2009,03,24,10,51,7.10
2009,03,24,10,52,7.10
2009,03,24,10,53,7.10
2009,03,24,10,54,7.10
2009,03,24,10,55,7.20
2009,03,24,10,56,7.20
2009,03,24,10,57,7.20
2009,03,24,10,58,7.20
2009,03,24,10,59,7.20
2009,03,24,11,00,7.20
2009,03,24,11,01,7.20
2009,03,24,11,02,7.20
2009,03,24,11,03,7.20
2009,03,24,11,04,7.30
2009,03,24,11,05,7.30
2009,03,24,11,06,7.30
2009,03,24,11,07,7.30
2009,03,24,11,08,7.30
2009,03,24,11,09,7.30
2009,03,24,11,10,7.30
2009,03,24,11,11,7.30
2009,03,24,11,12,7.40
2009,03,24,11,13,7.40
2009,03,24,11,14,7.40
2009,03,24,11,15,7.40
2009,03,24,11,16,7.40
2009,03,24,11,17,7.40
2009,03,24,11,18,7.40
2009,03,24,11,19,7.40
2009,03,24,11,20,7.40
2009,03,24,11,21,7.50
2009,03,24,11,22,7.50
2009,03,24,11,23,7.50
2009,03,24,11,24,7.50
2009,03,24,11,25,7.50
2009,03,24,11,26,7.50
2009,03,24,11,27,7.50
2009,03,24,11,28,7.50
2009,03,24,11,29,7.50
2009,03,24,11,30,7.50
2009,03,24,11,31,7.40
2009,03,24,11,32,7.40
2009,03,24,11,33,7.40
2009,03,24,11,34,7.40
2009,03,24,11,35,7.40
2009,03,24,11,36,7.40
2009,03,24,11,37,7.40
2009,03,24,11,38,7.40
2009,03,24,11,39,7.50
2009,03,24,11,40,7.50
2009,03,24,11,41,7.60
2009,03,24,11,42,7.60
2009,03,24,11,43,7.60
2009,03,24,11,44,7.60
2009,03,24,11,45,7.70
2009,03,24,11,46,7.70
2009,03,24,11,47,7.80
2009,03,24,11,48,7.80
2009,03,24,11,49,7.80
2009,03,24,11,50,7.80
2009,03,24,11,51,7.80
2009,03,24,11,52,7.80
2009,03,24,11,53,7.80
2009,03,24,11,54,7.80
2009,03,24,11,55,7.80
2009,03,24,11,56,7.70
2009,03,24,11,57,7.70
2009,03,24,11,58,7.70
2009,03,24,11,59,7.70
2009,03,24,12,00,7.70
2009,03,24,12,01,7.70
2009,03,24,12,02,7.70
2009,03,24,12,03,7.70
2009,03,24,12,04,7.70
2009,03,24,12,05,7.70
2009,03,24,12,06,7.70
2009,03,24,12,07,7.70
2009,03,24,12,08,7.60
2009,03,24,12,09,7.60
2009,03,24,12,10,7.60
2009,03,24,12,11,7.60
2009,03,24,12,12,7.50
2009,03,24,12,13,7.50
2009,03,24,12,14,7.50
2009,03,24,12,15,7.50
2009,03,24,12,16,7.40
2009,03,24,12,17,7.30
2009,03,24,12,18,7.20
2009,03,24,12,19,7.20
2009,03,24,12,20,7.10
2009,03,24,12,21,7.00
2009,03,24,12,22,6.90
2009,03,24,12,23,7.00
2009,03,24,12,24,7.00
2009,03,24,12,25,7.00
2009,03,24,12,26,7.10
2009,03,24,12,27,7.10
2009,03,24,12,28,7.10
2009,03,24,12,29,7.10
2009,03,24,12,30,7.10
2009,03,24,12,31,7.10
2009,03,24,12,32,7.10
2009,03,24,12,33,7.00
2009,03,24,12,34,7.00
2009,03,24,12,35,7.10
2009,03,24,12,36,7.10
2009,03,24,12,37,7.10
2009,03,24,12,38,7.10
2009,03,24,12,39,7.20
2009,03,24,12,40,7.20
2009,03,24,12,41,7.20
2009,03,24,12,42,7.20
2009,03,24,12,43,7.30
2009,03,24,12,44,7.30
2009,03,24,12,45,7.30
2009,03,24,12,46,7.30
2009,03,24,12,47,7.30
2009,03,24,12,48,7.30
2009,03,24,12,49,7.30
2009,03,24,12,50,7.30
2009,03,24,12,51,7.40
2009,03,24,12,52,7.40
2009,03,24,12,53,7.40
2009,03,24,12,54,7.40
2009,03,24,12,55,7.40
2009,03,24,12,56,7.30
2009,03,24,12,57,7.30
2009,03,24,12,58,7.20
2009,03,24,12,59,7.20
2009,03,24,13,00,7.20
2009,03,24,13,01,7.10
2009,03,24,13,02,7.10
2009,03,24,13,03,7.20
2009,03,24,13,04,7.10
2009,03,24,13,05,7.10
2009,03,24,13,06,7.10
2009,03,24,13,07,7.10
2009,03,24,13,08,7.10
2009,03,24,13,09,7.10
2009,03,24,13,10,7.10
2009,03,24,13,11,7.10
2009,03,24,13,12,7.10
2009,03,24,13,13,7.10
2009,03,24,13,14,7.10
2009,03,24,13,15,7.10
2009,03,24,13,16,7.10
2009,03,24,13,17,7.10
2009,03,24,13,18,7.10
2009,03,24,13,19,7.10
2009,03,24,13,20,7.00
2009,03,24,13,21,7.00
2009,03,24,13,22,7.00
2009,03,24,13,23,7.00
2009,03,24,13,24,6.90
2009,03,24,13,25,6.90
2009,03,24,13,26,6.90
2009,03,24,13,27,6.90
2009,03,24,13,28,6.90
2009,03,24,13,29,6.90
2009,03,24,13,30,6.90
2009,03,24,13,31,6.90
2009,03,24,13,32,6.90
2009,03,24,13,33,6.90
2009,03,24,13,34,6.80
2009,03,24,13,35,6.90
2009,03,24,13,36,6.90
2009,03,24,13,37,6.90
2009,03,24,13,38,6.90
2009,03,24,13,39,7.00
2009,03,24,13,40,7.00
2009,03,24,13,41,7.00
2009,03,24,13,42,7.00
2009,03,24,13,43,7.00
2009,03,24,13,44,7.00
2009,03,24,13,45,7.00
2009,03,24,13,46,7.00
2009,03,24,13,47,7.10
2009,03,24,13,48,7.20
2009,03,24,13,49,7.20
2009,03,24,13,50,7.20
2009,03,24,13,51,7.20
2009,03,24,13,52,7.20
2009,03,24,13,53,7.30
2009,03,24,13,54,7.30
2009,03,24,13,55,7.40
2009,03,24,13,56,7.50
2009,03,24,13,57,7.50
2009,03,24,13,58,7.50
2009,03,24,13,59,7.40
2009,03,24,14,00,7.40
2009,03,24,14,01,7.40
2009,03,24,14,02,7.40
2009,03,24,14,03,7.50
2009,03,24,14,04,7.50
2009,03,24,14,05,7.50
2009,03,24,14,06,7.50
2009,03,24,14,07,7.50
2009,03,24,14,08,7.60
2009,03,24,14,09,7.60
2009,03,24,14,10,7.60
2009,03,24,14,11,7.70
2009,03,24,14,12,7.70
2009,03,24,14,13,7.70
2009,03,24,14,14,7.80
2009,03,24,14,15,7.80
2009,03,24,14,16,7.80
2009,03,24,14,17,7.80
2009,03,24,14,18,7.80
2009,03,24,14,19,7.80
2009,03,24,14,20,7.80
2009,03,24,14,21,7.80
2009,03,24,14,22,7.80
2009,03,24,14,23,7.70
2009,03,24,14,24,7.80
2009,03,24,14,25,7.80
2009,03,24,14,26,7.80
2009,03,24,14,27,7.80
2009,03,24,14,28,7.80
2009,03,24,14,29,7.80
2009,03,24,14,30,7.90
2009,03,24,14,31,7.90
2009,03,24,14,32,7.90
2009,03,24,14,33,7.80
2009,03,24,14,34,7.80
2009,03,24,14,35,7.90
2009,03,24,14,36,7.90
2009,03,24,14,37,7.90
2009,03,24,14,38,7.90
2009,03,24,14,39,7.90
2009,03,24,14,40,7.90
2009,03,24,14,41,7.90
2009,03,24,14,42,7.90
2009,03,24,14,43,7.90
2009,03,24,14,44,7.90
2009,03,24,14,45,7.90
2009,03,24,14,46,7.90
2009,03,24,14,47,8.00
2009,03,24,14,48,8.00
2009,03,24,14,49,8.00
2009,03,24,14,50,8.00
2009,03,24,14,51,8.10
2009,03,24,14,52,8.10
2009,03,24,14,53,8.10
2009,03,24,14,54,8.10
2009,03,24,14,55,8.10
2009,03,24,14,56,8.10
2009,03,24,14,57,8.10
2009,03,24,14,58,8.10
2009,03,24,14,59,8.20
2009,03,24,15,00,8.20
2009,03,24,15,01,8.20
2009,03,24,15,02,8.20
2009,03,24,15,03,8.20
2009,03,24,15,04,8.30
2009,03,24,15,05,8.30
2009,03,24,15,06,8.30
2009,03,24,15,07,8.30
2009,03,24,15,08,8.20
2009,03,24,15,09,8.20
2009,03,24,15,10,8.20
2009,03,24,15,11,8.20
2009,03,24,15,12,8.20
2009,03,24,15,13,8.20
2009,03,24,15,14,8.20
2009,03,24,15,15,8.10
2009,03,24,15,16,8.10
2009,03,24,15,17,8.10
2009,03,24,15,18,8.10
2009,03,24,15,19,8.10
2009,03,24,15,20,8.10
2009,03,24,15,21,8.10
2009,03,24,15,22,8.10
2009,03,24,15,23,8.00
2009,03,24,15,24,8.00
2009,03,24,15,25,8.00
2009,03,24,15,26,8.00
2009,03,24,15,27,8.00
2009,03,24,15,28,7.90
2009,03,24,15,29,7.90
2009,03,24,15,30,7.90
2009,03,24,15,31,8.00
2009,03,24,15,32,8.00
2009,03,24,15,33,8.10
2009,03,24,15,34,8.00
2009,03,24,15,35,8.00
2009,03,24,15,36,8.00
2009,03,24,15,37,8.00
2009,03,24,15,38,8.00
2009,03,24,15,39,8.00
2009,03,24,15,40,8.00
2009,03,24,15,41,8.00
2009,03,24,15,42,8.00
2009,03,24,15,43,8.00
2009,03,24,15,44,7.90
2009,03,24,15,45,7.90
2009,03,24,15,46,7.90
2009,03,24,15,47,7.80
2009,03,24,15,48,7.80
2009,03,24,15,49,7.80
2009,03,24,15,50,7.80
2009,03,24,15,51,7.80
2009,03,24,15,52,7.80
2009,03,24,15,53,7.80
2009,03,24,15,54,7.80
2009,03,24,15,55,7.80
2009,03,24,15,56,7.80
2009,03,24,15,57,7.80
2009,03,24,15,58,7.70
2009,03,24,15,59,7.70
2009,03,24,16,00,7.70
2009,03,24,16,01,7.70
2009,03,24,16,02,7.70
2009,03,24,16,03,7.70
2009,03,24,16,04,7.70
2009,03,24,16,05,7.70
2009,03,24,16,06,7.70
2009,03,24,16,07,7.70
2009,03,24,16,08,7.70
2009,03,24,16,09,7.60
2009,03,24,16,10,7.60
2009,03,24,16,11,7.60
2009,03,24,16,12,7.60
2009,03,24,16,13,7.50
2009,03,24,16,14,7.50
2009,03,24,16,15,7.50
2009,03,24,16,16,7.40
2009,03,24,16,17,7.30
2009,03,24,16,18,7.30
2009,03,24,16,19,7.20
2009,03,24,16,20,7.10
2009,03,24,16,21,7.00
2009,03,24,16,22,6.90
2009,03,24,16,23,6.80
2009,03,24,16,24,6.70
2009,03,24,16,25,6.70
2009,03,24,16,26,6.60
2009,03,24,16,27,6.60
2009,03,24,16,28,6.60
2009,03,24,16,29,6.60
2009,03,24,16,30,6.50
2009,03,24,16,31,6.50
2009,03,24,16,32,6.50
2009,03,24,16,33,6.50
2009,03,24,16,34,6.50
2009,03,24,16,35,6.50
2009,03,24,16,36,6.50
2009,03,24,16,37,6.60
2009,03,24,16,38,6.60
2009,03,24,16,39,6.60
2009,03,24,16,40,6.60
2009,03,24,16,41,6.60
2009,03,24,16,42,6.60
2009,03,24,16,43,6.60
2009,03,24,16,44,6.60
2009,03,24,16,45,6.60
2009,03,24,16,46,6.60
2009,03,24,16,47,6.70
2009,03,24,16,48,6.70
2009,03,24,16,49,6.70
2009,03,24,16,50,6.70
2009,03,24,16,51,6.70
2009,03,24,16,52,6.70
2009,03,24,16,53,6.70
2009,03,24,16,54,6.70
2009,03,24,16,55,6.80
2009,03,24,16,56,6.80
2009,03,24,16,57,6.80
2009,03,24,16,58,6.80
2009,03,24,16,59,6.80
2009,03,24,17,00,6.80
2009,03,24,17,01,6.80
2009,03,24,17,02,6.80
2009,03,24,17,03,6.80
2009,03,24,17,04,6.80
2009,03,24,17,05,6.80
2009,03,24,17,06,6.80
2009,03,24,17,07,6.80
2009,03,24,17,08,6.80
2009,03,24,17,09,6.80
2009,03,24,17,10,6.80
2009,03,24,17,11,6.80
2009,03,24,17,12,6.80
2009,03,24,17,13,6.80
2009,03,24,17,14,6.80
2009,03,24,17,15,6.80
2009,03,24,17,16,6.80
2009,03,24,17,17,6.90
2009,03,24,17,18,6.80
2009,03,24,17,19,6.80
2009,03,24,17,20,6.80
2009,03,24,17,21,6.80
2009,03,24,17,22,6.80
2009,03,24,17,23,6.80
2009,03,24,17,24,6.80
2009,03,24,17,25,6.80
2009,03,24,17,26,6.80
2009,03,24,17,27,6.80
2009,03,24,17,28,6.80
2009,03,24,17,29,6.80
2009,03,24,17,30,6.80
2009,03,24,17,31,6.80
2009,03,24,17,32,6.90
2009,03,24,17,33,6.90
2009,03,24,17,34,6.90
2009,03,24,17,35,6.80
2009,03,24,17,36,6.80
2009,03,24,17,37,6.80
2009,03,24,17,38,6.80
2009,03,24,17,39,6.80
2009,03,24,17,40,6.80
2009,03,24,17,41,6.80
2009,03,24,17,42,6.80
2009,03,24,17,43,6.80
2009,03,24,17,44,6.80
2009,03,24,17,45,6.70
2009,03,24,17,46,6.70
2009,03,24,17,47,6.70
2009,03,24,17,48,6.70
2009,03,24,17,49,6.70
2009,03,24,17,50,6.70
2009,03,24,17,51,6.70
2009,03,24,17,52,6.70
2009,03,24,17,53,6.70
2009,03,24,17,54,6.70
2009,03,24,17,55,6.70
2009,03,24,17,56,6.70
2009,03,24,17,57,6.70
2009,03,24,17,58,6.70
2009,03,24,17,59,6.70
2009,03,24,18,00,6.70
2009,03,24,18,01,6.60
2009,03,24,18,02,6.60
2009,03,24,18,03,6.60
2009,03,24,18,04,6.60
2009,03,24,18,05,6.60
2009,03,24,18,06,6.60
2009,03,24,18,07,6.60
2009,03,24,18,08,6.60
2009,03,24,18,09,6.60
2009,03,24,18,10,6.60
2009,03,24,18,11,6.60
2009,03,24,18,12,6.60
2009,03,24,18,13,6.50
2009,03,24,18,14,6.50
2009,03,24,18,15,6.50
2009,03,24,18,16,6.50
2009,03,24,18,17,6.50
2009,03,24,18,18,6.50
2009,03,24,18,19,6.40
2009,03,24,18,20,6.40
2009,03,24,18,21,6.40
2009,03,24,18,22,6.40
2009,03,24,18,23,6.40
2009,03,24,18,24,6.40
2009,03,24,18,25,6.40
2009,03,24,18,26,6.40
2009,03,24,18,27,6.40
2009,03,24,18,28,6.40
2009,03,24,18,29,6.40
2009,03,24,18,30,6.40
2009,03,24,18,31,6.40
2009,03,24,18,32,6.40
2009,03,24,18,33,6.40
2009,03,24,18,34,6.40
2009,03,24,18,35,6.40
2009,03,24,18,36,6.40
2009,03,24,18,37,6.40
2009,03,24,18,38,6.40
2009,03,24,18,39,6.40
2009,03,24,18,40,6.40
2009,03,24,18,41,6.40
2009,03,24,18,42,6.30
2009,03,24,18,43,6.30
2009,03,24,18,44,6.30
2009,03,24,18,45,6.30
2009,03,24,18,46,6.30
2009,03,24,18,47,6.30
2009,03,24,18,48,6.30
2009,03,24,18,49,6.30
2009,03,24,18,50,6.30
2009,03,24,18,51,6.30
2009,03,24,18,52,6.30
2009,03,24,18,53,6.20
2009,03,24,18,54,6.20